This demonstration page uses our WeatherBlox Daily Observations layout. Learn more.

Left ArrowRight Arrow

Hourly Observations for July 15, 2022

Temp ( °F °C ) Dew Point ( °F °C ) Humidity (%) Winds ( mph kmh ) Pressure ( in mb ) Visibility ( mi km ) Precip ( " mm )
12:53 am 00:53 Mostly Clear 82 27.8 66 18.9 58 58 ESE 5 7 30.03 1017 10 16 0.00 0.00
1:53 am 01:53 Mostly Clear 82 27.8 67 19.4 60 60 ESE 6 9 30.04 1017 10 16 0.00 0.00
2:53 am 02:53 Clear 81 27.2 67 19.4 62 62 ESE 3 6 30.04 1017 10 16 0.00 0.00
3:53 am 03:53 Clear 80 26.7 67 19.4 64 64 SSE 8 13 30.04 1017 10 16 0.00 0.00
4:53 am 04:53 Clear 79 26.1 68 20 69 69 SSE 6 9 30.04 1017 10 16 0.00 0.00
5:53 am 05:53 Clear 79 26.1 68 20 69 69 SSE 3 6 30.04 1017 10 16 0.00 0.00
6:53 am 06:53 Sunny 79 26.1 68 20 69 69 SSE 6 9 30.04 1017 10 16 0.00 0.00
7:53 am 07:53 Sunny 79 26.1 69 20.6 72 72 S 5 7 30.05 1018 10 16 0.00 0.00
8:53 am 08:53 Sunny 82 27.8 69 20.6 65 65 Calm 30.07 1018 10 16 0.00 0.00
9:53 am 09:53 Mostly Sunny 87 30.6 68 20 53 53 SSE 6 9 30.06 1018 10 16 0.00 0.00
10:53 am 10:53 Sunny 91 32.8 68 20 47 47 E 6 9 30.06 1018 10 16 0.00 0.00
11:53 am 11:53 Mostly Sunny 92 33.3 67 19.4 44 44 VRB 3 6 30.05 1018 10 16 0.00 0.00
12:53 pm 12:53 Mostly Sunny 95 35 67 19.4 40 40 VRB 6 9 30.04 1017 10 16 0.00 0.00
1:53 pm 13:53 Mostly Sunny 97 36.1 65 18.3 35 35 NE 7 11 30.03 1017 10 16 0.00 0.00
2:53 pm 14:53 Partly Cloudy 98 36.7 66 18.9 35 35 SE 9 15 30.00 1016 10 16 0.00 0.00
3:53 pm 15:53 Partly Cloudy 98 36.7 65 18.3 34 34 ESE 12 19 29.98 1015 10 16 0.00 0.00
4:53 pm 16:53 Partly Cloudy 97 36.1 63 17.2 33 33 E 12 19 29.96 1015 10 16 0.00 0.00
5:53 pm 17:53 Partly Cloudy 97 36.1 63 17.2 33 33 ESE 13 20 29.96 1014 10 16 0.00 0.00
6:53 pm 18:53 Partly Cloudy 95 35 64 17.8 36 36 SE 13 20 29.95 1014 10 16 0.00 0.00
7:53 pm 19:53 Mostly Sunny 94 34.4 64 17.8 37 37 SSE 10 17 29.96 1014 10 16 0.00 0.00
8:53 pm 20:53 Mostly Clear 93 33.9 62 16.7 36 36 SSE 8 13 29.96 1014 10 16 0.00 0.00
9:53 pm 21:53 Clear 92 33.3 63 17.2 38 38 SE 8 13 29.96 1015 10 16 0.00 0.00
10:53 pm 22:53 Clear 90 32.2 64 17.8 42 42 SE 7 11 29.97 1015 10 16 0.00 0.00
11:53 pm 23:53 Clear 88 31.1 66 18.9 48 48 SE 6 9 29.97 1015 10 16 0.00 0.00

Powered by AerisWeather